Location: Albany
(35.0170°S, 117.8920°E)
Time: 17:35:21
(UTC+08:00)

Transit 2A - Pass Details

Date: 24 January 2021
Orbit: 601 x 958 km, 66.7° (Epoch: 02 March)

Event Time Altitude Azimuth Distance (km) Brightness Sun altitude
Rises 23:55:06 0° 194° (SSW) 3,528 10.4 -35.4°
Reaches altitude 10° 23:58:11 10° 179° (S) 2,631 9.5 -35.4°
Maximum altitude 00:02:54 22° 129° (SE) 1,939 8.3 -35.5°
Enters shadow 00:03:55 21° 115° (ESE) 1,984 8.2 -35.6°
Drops below altitude 10° 00:07:43 10° 79° (E) 2,695 - -35.6°
Sets 00:10:54 0° 65° (ENE) 3,636 - -35.7°
